Regional Weather Roundup
Issued by NWS

Home | Current Version | Previous Version | Graphics & Text | Print | Product List | Glossary On
Versions: 1 2 3 4 5 6 7 8 9 10 11 12 13 14 15 16 17 18 19 20 21 22 23 24 25 26 27 28 29 30 31 32 33 34 35 36 37 38 39 40 41 42 43 44 45 46 47 48 49 50
868
ASUS43 KLMK 281202
RWRKY
KENTUCKY REGIONAL WEATHER ROUNDUP
NATIONAL WEATHER SERVICE LOUISVILLE KY
800 AM EDT SAT MAY 28 2016

NOTE "FAIR" INDICATES FEW OR NO CLOUDS BELOW 12,000 FEET
WITH NO SIGNIFICANT WEATHER AND/OR OBSTRUCTIONS TO VISIBILITY.

KYZ001>023-026-027-061>063-070>075-281300-
WESTERN AND SOUTH CENTRAL KENTUCKY

CITY           SKY/WX    TMP DP  RH WIND       PRES   REMARKS
PADUCAH        CLOUDY    71  65  81 S7        29.97R
HENDERSON      CLOUDY    72  64  78 SE8       29.99R
OWENSBORO      CLOUDY    72  68  87 S9        30.02R
HOPKINSVILLE   NOT AVBL
BOWLING GREEN  CLOUDY    72  68  87 SE3       30.05R
GLASGOW        NOT AVBL
$$

KYZ024-025-028>034-038-045-046-053-281300-
NORTH CENTRAL KENTUCKY

CITY           SKY/WX    TMP DP  RH WIND       PRES   REMARKS
LOUISVILLE/SDF CLOUDY    70  66  87 SE8       30.04S
LOUISVILLE/LOU CLOUDY    72  66  81 S5        30.05S
FORT KNOX      NOT AVBL
$$

KYZ035>037-039>044-047>052-055>060-089>105-281300-
NORTHEAST KENTUCKY

CITY           SKY/WX    TMP DP  RH WIND       PRES   REMARKS
LEXINGTON      SUNNY     72  64  76 S9        30.09S
COVINGTON      MOSUNNY   71  66  84 S8        30.07R
FRANKFORT      MOSUNNY   70  64  81 S6        30.07R
$$

KYZ054-064>069-076>088-106>120-281300-
SOUTHEAST KENTUCKY

CITY           SKY/WX    TMP DP  RH WIND       PRES   REMARKS
JACKSON        MOSUNNY   68  63  84 CALM      30.14R
LONDON         SUNNY     67  63  87 SE5       30.12S
SOMERSET       NOT AVBL
MIDDLESBORO    NOT AVBL
MONTICELLO     MOSUNNY   71  64  78 NE8       30.12R
$$





USA.gov is the U.S. government's official web portal to all federal, state and local government web resources and services.